{"data":{"norad_id":87293,"intl_designator":"","name":"UNKNOWN","alt_names":[],"object_type":"UNKNOWN","status":"UNKNOWN","operator":null,"country":null,"launch_date":null,"launch_site_code":null,"launch_vehicle":null,"mission":null,"orbit_class":"UNKNOWN","rcs_meters":null,"size_class":null,"mass_kg":null,"dimensions":null,"purposes":[],"wikipedia_slug":null,"has_3d_model":false,"image_url":null,"decayed_at":null,"tle_current":{"epoch":"2026-09-18T00:05:35.512800Z","epoch_age_seconds":229873,"freshness":"STALE","line1":"1 87293U          26261.00388325  .00002690  00000+0  52216-3 0  9990","line2":"2 87293  65.8939 120.6164 0420664 209.7498 147.9067 14.21067979653646","mean_motion":14.21067979,"eccentricity":0.0420664,"inclination_deg":65.8939,"raan_deg":120.6164,"arg_perigee_deg":209.7498,"mean_anomaly_deg":147.9067,"bstar":0.00052216,"rev_number":65364,"period_min":101.3322389414,"perigee_km":518.87019255312,"apogee_km":1124.6162763418,"semimajor_km":7199.8802344475,"source":"CELESTRAK","updated_at":"2026-09-20T09:00:32.453387Z"}}}